DW1107 Weather Reports


time (UTC)temp
C
wind
direction
speed
KPH
gust
KPH
rain 1hr
cm
rain 24hr
cm
rain mn
cm
humidity
%
barometer
mb
20260508131559 11 272 6.4 12.9 0.00 0.00 0.00 78 1003.0
20260508124607 10 311 6.4 16.1 0.00 0.00 0.00 78 1003.1
20260508123115 10 350 6.4 16.1 0.00 0.00 0.00 79 1003.2
20260508121600 10 1 6.4 16.1 0.00 0.00 0.00 81 1003.2
20260508120101 9 315 6.4 19.3 0.00 0.00 0.00 83 1003.2
20260508114600 8 315 6.4 14.5 0.00 0.00 0.00 84 1003.2
20260508113106 8 358 4.8 11.3 0.00 0.00 0.00 86 1003.0
20260508111602 -17 9 3.2 8.0 0.00 0.00 0.00 1003.0
20260508110056 -17 276 4.8 8.0 0.00 0.00 0.00 1002.9
20260508104601 -17 270 1.6 4.8 0.00 0.00 0.00 1002.8
20260508103056 -17 0 0.0 3.2 0.00 0.00 0.00 1002.7
20260508101604 -17 0 0.0 1.6 0.00 0.00 0.00 1002.7
20260508100051 -17 0 0.0 3.2 0.00 0.00 0.00 1002.5
20260508094612 -17 245 0.0 3.2 0.00 0.00 0.00 1002.5
20260508093057 -17 292 0.0 3.2 0.00 0.00 0.00 1002.4
20260508091553 -17 0 0.0 3.2 0.00 0.00 0.00 1002.5
20260508090055 -17 252 0.0 3.2 0.00 0.00 0.00 1002.5
20260508084555 -17 256 0.0 4.8 0.00 0.00 0.00 1002.4
20260508083058 -17 273 1.6 8.0 0.00 0.00 0.00 1002.2
20260508081619 -17 324 1.6 4.8 0.00 0.00 0.00 1002.4
20260508080053 -17 275 4.8 8.0 0.00 0.00 0.00 1002.4
20260508074553 -17 0 1.6 6.4 0.00 0.00 0.00 1002.7
20260508073053 -17 34 3.2 9.7 0.00 0.00 0.00 1002.8
20260508071557 -17 156 3.2 9.7 0.00 0.00 0.00 1002.7
20260508070057 -17 319 3.2 11.3 0.00 0.00 0.00 1002.6
20260508064555 -17 6 3.2 11.3 0.00 0.00 0.00 1002.4
20260508063103 -17 265 0.0 8.0 0.00 0.00 0.00 1002.7
20260508061555 -17 353 1.6 4.8 0.00 0.00 0.00 1002.4
20260508060058 -17 329 0.0 1.6 0.00 0.00 0.00 1002.4
20260508054554 -17 0 0.0 1.6 0.00 0.00 0.00 1002.6
20260508053057 -17 348 0.0 4.8 0.00 0.00 0.00 1002.6
20260508051556 -17 4 0.0 4.8 0.00 0.00 0.00 1002.4
20260508050055 -17 315 1.6 4.8 0.00 0.00 0.00 1002.6
20260508044552 -17 341 1.6 4.8 0.00 0.00 0.00 1002.8
20260508043054 -17 281 0.0 3.2 0.00 0.00 0.00 1003.0
20260508041553 -17 0 0.0 4.8 0.00 0.00 0.00 1002.6
20260508034555 -17 0 0.0 3.2 0.00 0.00 0.00 1002.7
20260508033054 -17 0 0.0 6.4 0.00 0.00 0.00 1002.7
20260508031557 -17 266 0.0 4.8 0.00 0.00 0.00 1002.9
20260508030055 -17 185 0.0 6.4 0.00 0.00 0.00 1003.2
20260508024556 -17 206 0.0 4.8 0.00 0.00 0.00 1003.3
20260508023054 -17 276 1.6 9.7 0.00 0.00 0.00 1003.5
20260508021556 -17 248 3.2 14.5 0.00 0.00 0.00 1003.5
20260508020104 -17 291 4.8 11.3 0.00 0.00 0.00 1003.4
20260508014559 -17 267 1.6 9.7 0.00 0.00 0.00 1003.5
20260508013053 -17 205 3.2 9.7 0.00 0.00 0.00 1003.4
20260508011553 -17 238 1.6 6.4 0.00 0.00 0.00 1003.6
20260508010055 -17 0 0.0 3.2 0.00 0.00 0.00 1003.1
20260508004602 -17 0 0.0 1.6 0.00 0.00 0.00 1003.0
20260508003100 -17 217 0.0 1.6 0.00 0.00 0.00 1002.8
20260508001557 -17 169 0.0 1.6 0.00 0.00 0.00 1002.8
20260508000059 -17 219 0.0 1.6 0.00 0.00 0.00 1002.7
20260507234559 -17 0 0.0 4.8 0.00 0.00 0.00 1002.7
20260507233054 -17 240 3.2 6.4 0.00 0.00 0.00 1002.7
20260507231559 10 307 0.0 6.4 0.00 0.00 0.00 82 1002.5
20260507230056 11 19 0.0 6.4 0.00 0.00 0.00 80 1002.7
20260507224559 12 348 1.6 8.0 0.00 0.00 0.00 79 1002.5
20260507223055 13 312 3.2 6.4 0.00 0.00 0.00 76 1002.2
20260507221555 13 0 1.6 11.3 0.00 0.00 0.00 73 1002.4
20260507220057 13 212 4.8 9.7 0.00 0.00 0.00 75 1002.2
20260507214604 13 314 1.6 11.3 0.00 0.00 0.00 76 1002.2
20260507213053 13 137 4.8 12.9 0.00 0.00 0.00 78 1002.3
20260507211559 13 205 1.6 14.5 0.00 0.00 0.00 79 1002.0
20260507210059 12 23 4.8 14.5 0.00 0.00 0.00 82 1002.2
20260507204556 12 236 8.0 12.9 0.00 0.00 0.00 83 1002.2
20260507203105 12 233 6.4 20.9 0.00 0.00 0.00 87 1002.0
20260507201559 11 243 6.4 16.1 0.00 0.00 0.00 88 1002.2
20260507200108 11 214 4.8 14.5 0.00 0.00 0.00 91 1002.2
20260507194556 12 232 4.8 16.1 0.00 0.00 0.00 94 1002.2
20260507193058 11 294 6.4 16.1 0.00 0.00 0.00 96 1002.3
20260507191604 11 271 4.8 12.9 0.00 0.00 0.00 97 1002.4
20260507190105 11 201 3.2 14.5 0.00 0.00 0.00 97 1002.2
20260507184601 10 289 6.4 14.5 0.00 0.00 0.00 97 1001.9
20260507183104 -17 353 3.2 12.9 0.00 0.00 0.00 1002.2
20260507181603 -17 293 4.8 17.7 0.00 0.00 0.00 1002.2
20260507180059 -17 296 6.4 16.1 0.00 0.00 0.00 1002.2
20260507174559 -17 329 4.8 11.3 0.00 0.00 0.00 1002.1
20260507173106 -17 353 3.2 14.5 0.00 0.00 0.00 1001.8
20260507171604 -17 299 6.4 25.7 0.00 0.00 0.00 1002.6
20260507164606 -17 260 3.2 8.0 0.00 0.00 0.00 1001.9
20260507163056 -17 173 9.7 19.3 0.00 0.00 0.00 1001.0
20260507161558 -17 154 12.9 20.9 0.00 0.00 0.00 1001.4
20260507160057 -17 170 12.9 19.3 0.00 0.00 0.00 1002.0
20260507154601 -17 142 8.0 17.7 0.00 0.00 0.00 1002.4
20260507153106 -17 105 4.8 8.0 0.00 0.00 0.00 1002.6
20260507151553 -17 144 12.9 19.3 0.00 0.00 0.00 1003.4
20260507150059 -17 180 4.8 12.9 0.00 0.00 0.00 1003.0
20260507144556 -17 109 3.2 6.4 0.00 0.00 0.00 1003.4
20260507143058 -17 129 1.6 4.8 0.00 0.00 0.00 1004.2
20260507141554 -17 0 0.0 4.8 0.00 0.00 0.00 1004.3
20260507140057 -17 258 0.0 6.4 0.00 0.00 0.00 1004.7
20260507134603 -17 161 14.5 25.7 0.00 0.00 0.00 1004.1
20260507133115 -17 223 12.9 27.4 0.00 0.00 0.00 1004.2